• In Hungary
  • List of Countries
  • For 7 days
  • Water Temperature
  • Satellite Maps
  • Weather Map
  • News
  • Weather Widgets
  • user-avatar
    Login

    Hourly Weather Kulganino

    Today, 16 July, Monday

    Time Temperature Precipitation Wind Pressure Humidity
    00:00 +17°C° 0 mm 2 mps 712 mmHg 95%
    01:00 +16°C° 0 mm 2 mps 712 mmHg 96%
    02:00 +16°C° 0 mm 2 mps 712 mmHg 96%
    03:00 +15°C° 0 mm 2 mps 712 mmHg 97%
    04:00 +15°C° 0 mm 2 mps 712 mmHg 97%
    05:00 +16°C° 0 mm 2 mps 712 mmHg 93%
    06:00 +17°C° 0 mm 2 mps 713 mmHg 90%
    07:00 +18°C° 0 mm 3 mps 713 mmHg 86%
    08:00 +20°C° 0 mm 3 mps 713 mmHg 79%
    09:00 +21°C° 0 mm 4 mps 713 mmHg 71%
    10:00 +22°C° 0 mm 4 mps 714 mmHg 63%
    11:00 +23°C° 0 mm 4 mps 714 mmHg 61%
    12:00 +25°C° 0 mm 4 mps 714 mmHg 58%
    13:00 +25°C° 0 mm 4 mps 713 mmHg 56%
    14:00 +25°C° 0 mm 4 mps 713 mmHg 57%
    15:00 +25°C° 0 mm 4 mps 713 mmHg 57%
    16:00 +25°C° 0 mm 4 mps 713 mmHg 58%
    17:00 +23°C° 0 mm 4 mps 713 mmHg 63%
    18:00 +22°C° 0 mm 3 mps 713 mmHg 69%
    19:00 +21°C° 0 mm 3 mps 713 mmHg 75%
    20:00 +20°C° 0 mm 3 mps 713 mmHg 80%
    21:00 +18°C° 0 mm 3 mps 713 mmHg 86%
    22:00 +17°C° 0 mm 2 mps 713 mmHg 91%
    23:00 +16°C° 0 mm 2 mps 713 mmHg 92%

    Tomorrow, 17 July, Tuesday

    Time Temperature Precipitation Wind Pressure Humidity
    00:00 +16°C° 0 mm 2 mps 713 mmHg 92%
    01:00 +15°C° 0 mm 2 mps 713 mmHg 93%
    02:00 +15°C° 0 mm 2 mps 713 mmHg 93%
    03:00 +14°C° 0 mm 2 mps 713 mmHg 93%
    04:00 +14°C° 0 mm 2 mps 713 mmHg 93%
    05:00 +15°C° 0 mm 2 mps 713 mmHg 90%
    06:00 +16°C° 0 mm 2 mps 713 mmHg 86%
    07:00 +18°C° 0 mm 3 mps 713 mmHg 83%
    08:00 +19°C° 0 mm 3 mps 713 mmHg 79%
    09:00 +20°C° 0 mm 3 mps 713 mmHg 74%
    10:00 +21°C° 0 mm 4 mps 714 mmHg 70%
    11:00 +22°C° 0 mm 4 mps 713 mmHg 67%
    12:00 +23°C° 0 mm 4 mps 713 mmHg 65%
    13:00 +23°C° 0 mm 4 mps 713 mmHg 62%
    14:00 +25°C° 0 mm 4 mps 713 mmHg 61%
    15:00 +25°C° 0 mm 4 mps 713 mmHg 61%
    16:00 +26°C° 0 mm 4 mps 713 mmHg 60%
    17:00 +25°C° 0 mm 4 mps 713 mmHg 65%
    18:00 +23°C° 0 mm 4 mps 712 mmHg 70%
    19:00 +22°C° 0 mm 3 mps 712 mmHg 75%
    20:00 +21°C° 0 mm 3 mps 712 mmHg 76%
    21:00 +20°C° 0 mm 3 mps 712 mmHg 77%
    22:00 +19°C° 0 mm 3 mps 712 mmHg 78%
    23:00 +19°C° 0 mm 3 mps 712 mmHg 76%

    Day after tomorrow, 18 July, Wednesday

    Time Temperature Precipitation Wind Pressure Humidity
    00:00 +19°C° 0 mm 3 mps 712 mmHg 75%
    01:00 +19°C° 0 mm 2 mps 712 mmHg 73%
    02:00 +18°C° 0.5 mm 2 mps 712 mmHg 78%
    03:00 +17°C° 0.5 mm 2 mps 712 mmHg 83%
    04:00 +16°C° 0.5 mm 1 mps 711 mmHg 88%
    05:00 +16°C° 1.3 mm 1 mps 712 mmHg 89%
    06:00 +16°C° 1.3 mm 2 mps 712 mmHg 91%
    07:00 +17°C° 1.3 mm 2 mps 712 mmHg 92%
    08:00 +17°C° 0.6 mm 2 mps 712 mmHg 90%
    09:00 +18°C° 0.6 mm 2 mps 712 mmHg 87%
    10:00 +19°C° 0.6 mm 3 mps 712 mmHg 85%
    11:00 +20°C° 0.4 mm 3 mps 712 mmHg 81%
    12:00 +20°C° 0.4 mm 3 mps 712 mmHg 77%
    13:00 +21°C° 0.4 mm 3 mps 712 mmHg 73%
    14:00 +22°C° 0 mm 3 mps 712 mmHg 71%
    15:00 +22°C° 0 mm 3 mps 713 mmHg 69%
    16:00 +24°C° 0 mm 3 mps 713 mmHg 67%
    17:00 +22°C° 0.1 mm 3 mps 712 mmHg 71%
    18:00 +22°C° 0.1 mm 3 mps 712 mmHg 75%
    19:00 +21°C° 0.1 mm 2 mps 712 mmHg 79%
    20:00 +20°C° 0.3 mm 2 mps 712 mmHg 83%
    21:00 +19°C° 0.3 mm 2 mps 712 mmHg 87%
    22:00 +18°C° 0.3 mm 2 mps 712 mmHg 91%
    23:00 +18°C° 0.4 mm 2 mps 712 mmHg 91%

    19 July, Thursday

    Time Temperature Precipitation Wind Pressure Humidity
    00:00 +18°C° 0.4 mm 1 mps 712 mmHg 91%
    01:00 +18°C° 0.4 mm 1 mps 712 mmHg 91%
    02:00 +18°C° 0.1 mm 1 mps 712 mmHg 91%
    03:00 +18°C° 0.1 mm 1 mps 712 mmHg 90%
    04:00 +18°C° 0.1 mm 1 mps 712 mmHg 90%
    05:00 +19°C° 0 mm 1 mps 712 mmHg 88%
    06:00 +18°C° 0 mm 2 mps 713 mmHg 86%
    07:00 +19°C° 0 mm 2 mps 713 mmHg 84%
    08:00 +21°C° 0 mm 2 mps 713 mmHg 77%
    09:00 +23°C° 0 mm 2 mps 713 mmHg 69%
    10:00 +25°C° 0 mm 2 mps 713 mmHg 61%
    11:00 +26°C° 0 mm 2 mps 713 mmHg 58%
    12:00 +26°C° 0 mm 3 mps 713 mmHg 55%
    13:00 +27°C° 0 mm 3 mps 713 mmHg 52%
    14:00 +27°C° 0 mm 3 mps 713 mmHg 53%
    15:00 +27°C° 0 mm 3 mps 713 mmHg 55%
    16:00 +27°C° 0 mm 3 mps 713 mmHg 56%
    17:00 +25°C° 0 mm 3 mps 713 mmHg 62%
    18:00 +24°C° 0 mm 2 mps 713 mmHg 68%
    19:00 +23°C° 0 mm 2 mps 713 mmHg 74%
    20:00 +20°C° 0.2 mm 2 mps 713 mmHg 80%
    21:00 +20°C° 0.2 mm 1 mps 713 mmHg 86%
    22:00 +18°C° 0.2 mm 1 mps 712 mmHg 92%
    23:00 +16°C° 0 mm 1 mps 712 mmHg 92%

    20 July, Friday

    Time Temperature Precipitation Wind Pressure Humidity
    00:00 +16°C° 0 mm 1 mps 712 mmHg 93%
    01:00 +15°C° 0 mm 1 mps 712 mmHg 94%
    02:00 +15°C° 0 mm 1 mps 712 mmHg 94%
    03:00 +15°C° 0 mm 1 mps 712 mmHg 95%
    04:00 +14°C° 0 mm 1 mps 712 mmHg 95%
    05:00 +16°C° 0 mm 1 mps 712 mmHg 91%
    06:00 +18°C° 0 mm 1 mps 712 mmHg 86%
    07:00 +20°C° 0 mm 1 mps 712 mmHg 82%
    08:00 +20°C° 0 mm 2 mps 712 mmHg 74%
    09:00 +23°C° 0 mm 2 mps 712 mmHg 66%
    10:00 +25°C° 0 mm 3 mps 712 mmHg 58%
    11:00 +26°C° 0 mm 3 mps 712 mmHg 56%
    12:00 +26°C° 0 mm 3 mps 712 mmHg 54%
    13:00 +27°C° 0 mm 3 mps 712 mmHg 52%
    14:00 +27°C° 0 mm 3 mps 712 mmHg 54%
    15:00 +27°C° 0 mm 3 mps 712 mmHg 55%
    16:00 +27°C° 0 mm 3 mps 712 mmHg 57%
    17:00 +26°C° 0.2 mm 3 mps 712 mmHg 65%
    18:00 +25°C° 0.2 mm 3 mps 711 mmHg 73%
    19:00 +22°C° 0.2 mm 3 mps 711 mmHg 82%
    20:00 +21°C° 0.1 mm 3 mps 711 mmHg 86%
    21:00 +20°C° 0.1 mm 3 mps 711 mmHg 91%
    22:00 +18°C° 0.1 mm 3 mps 711 mmHg 95%
    23:00 +18°C° 0 mm 3 mps 711 mmHg 96%

    21 July, Saturday

    Time Temperature Precipitation Wind Pressure Humidity
    00:00 +18°C° 0 mm 3 mps 711 mmHg 96%
    01:00 +17°C° 0 mm 3 mps 711 mmHg 97%
    02:00 +17°C° 0 mm 3 mps 711 mmHg 97%
    03:00 +17°C° 0 mm 3 mps 711 mmHg 97%
    04:00 +17°C° 0 mm 3 mps 711 mmHg 97%
    05:00 +17°C° 0 mm 3 mps 711 mmHg 95%
    06:00 +18°C° 0 mm 4 mps 711 mmHg 93%
    07:00 +18°C° 0 mm 4 mps 711 mmHg 91%
    08:00 +18°C° 0 mm 4 mps 711 mmHg 88%
    09:00 +19°C° 0 mm 5 mps 711 mmHg 85%
    10:00 +19°C° 0 mm 5 mps 711 mmHg 82%
    11:00 +21°C° 0 mm 5 mps 711 mmHg 74%
    12:00 +22°C° 0 mm 6 mps 711 mmHg 67%
    13:00 +24°C° 0 mm 6 mps 712 mmHg 60%
    14:00 +24°C° 0.1 mm 6 mps 712 mmHg 60%
    15:00 +23°C° 0.1 mm 6 mps 712 mmHg 60%
    16:00 +23°C° 0.1 mm 6 mps 712 mmHg 60%
    17:00 +22°C° 0 mm 6 mps 712 mmHg 63%
    18:00 +21°C° 0 mm 5 mps 712 mmHg 66%
    19:00 +20°C° 0 mm 4 mps 712 mmHg 69%
    20:00 +19°C° 0 mm 5 mps 712 mmHg 73%
    21:00 +17°C° 0 mm 5 mps 712 mmHg 76%
    22:00 +16°C° 0 mm 5 mps 712 mmHg 80%
    23:00 +16°C° 0 mm 5 mps 712 mmHg 82%
    Show more